Torna al catalogo

COSMOS 1275 DEB

AttivoPO
NORAD 12732·DEBRIS·🇷🇺 Russia

Lanciato Jun 4, 1981 da Plesetsk Cosmodrome

Loading…

Prossimi Passaggi (prossime 24 ore)

TLE

AggiornatoSource: Space-Track

Epoca: Sep 14, 2026, 14:38 UTC

1 12732U 81053BZ  26257.61040720  .00000279  00000-0  20529-3 0  9993
2 12732  82.9920 356.0700 0051734 199.5012 225.5151 13.91634485283586

Traccia COSMOS 1275 DEB in tempo reale con AllMySat

Download on the App Store